EW1160 Weather Reports


Display with metric or nautical units.
time (UTC)temp
F
wind
direction
speed
MPH
gust
MPH
rain 1hr
in
rain 24hr
in
rain mn
in
humidity
%
barometer
mb
20260902114513 74 154 0.0 0.0 0.00 0.31 0.00 92 1010.1
20260902113058 74 155 0.0 0.0 0.00 0.31 0.00 92 1010.6
20260902111557 74 155 0.0 0.0 0.00 0.31 0.00 92 1010.7
20260902110104 74 156 0.0 0.0 0.00 0.31 0.00 92 1010.3
20260902104559 74 156 0.0 0.0 0.00 0.31 0.00 91 1010.2
20260902103104 74 155 0.0 0.0 0.00 0.31 0.00 91 1010.0
20260902101554 75 154 0.0 0.0 0.00 0.31 0.00 91 1009.9
20260902100053 75 163 0.0 0.0 0.00 0.31 0.00 91 1009.8
20260902094552 75 163 0.0 0.0 0.00 0.31 0.00 90 1009.7
20260902093038 75 163 0.0 0.0 0.00 0.31 0.00 90 1009.9
20260902091534 75 164 0.0 0.0 0.00 0.31 0.00 90 1010.1
20260902090015 76 164 0.0 0.0 0.00 0.31 0.00 89 1010.1
20260902084515 76 164 0.0 0.0 0.00 0.31 0.00 88 1010.0
20260902083056 75 164 0.0 0.0 0.00 0.31 0.00 89 1010.0
20260902081559 75 164 0.0 0.0 0.00 0.31 0.00 90 1009.9
20260902080048 75 116 0.0 0.0 0.00 0.31 0.00 91 1010.0
20260902074536 75 91 0.0 0.0 0.00 0.31 0.00 91 1010.0
20260902073028 75 92 0.0 0.0 0.00 0.31 0.00 91 1009.9
20260902071518 75 90 0.0 0.0 0.00 0.31 0.00 91 1010.0
20260902070059 75 90 0.0 0.0 0.00 0.31 0.00 92 1010.1
20260902064557 75 89 0.0 0.0 0.00 0.31 0.00 92 1010.2
20260902063039 75 89 0.0 0.0 0.00 0.31 0.00 92 1010.2
20260902061540 75 88 0.0 0.0 0.00 0.31 0.00 92 1010.4
20260902060020 75 88 0.0 0.0 0.00 0.31 0.00 92 1010.6
20260902054529 75 88 0.0 0.0 0.00 0.31 0.00 92 1010.8
20260902053004 75 88 0.0 0.0 0.00 0.31 0.00 92 1010.6
20260902051506 75 88 0.0 0.0 0.00 0.31 0.00 92 1010.7
20260902050047 75 88 0.0 0.0 0.00 0.31 0.00 92 1010.6
20260902044544 75 87 0.0 0.0 0.00 0.31 0.00 92 1010.8
20260902043027 75 87 0.0 0.0 0.00 0.31 0.00 92 1010.7
20260902041524 75 84 0.0 0.0 0.00 0.31 0.00 92 1010.6
20260902040006 76 84 0.0 0.0 0.00 0.31 0.00 92 1010.4
20260902034503 76 84 0.0 0.0 0.00 0.31 0.31 92 1010.5
20260902033052 76 84 0.0 0.0 0.00 0.31 0.31 92 1010.5
20260902031546 76 84 0.0 0.0 0.00 0.31 0.31 91 1010.5
20260902030028 77 84 0.0 0.0 0.00 0.31 0.31 91 1010.4
20260902024526 77 83 0.0 0.0 0.00 0.31 0.31 91 1010.4
20260902023022 77 83 0.0 0.0 0.00 0.31 0.31 91 1010.4
20260902021524 78 83 0.0 0.0 0.00 0.31 0.31 91 1010.3
20260902020101 78 79 0.0 0.0 0.00 0.31 0.31 90 1010.3
20260902014557 79 79 0.0 0.0 0.00 0.31 0.31 89 1010.2
20260902013057 79 79 0.0 0.0 0.00 0.31 0.31 88 1010.1
20260902011556 80 79 0.0 0.0 0.00 0.31 0.31 87 1010.0
20260902010055 80 79 0.0 0.0 0.00 0.31 0.31 86 1009.8
20260902004556 81 79 0.0 0.0 0.00 0.31 0.31 85 1009.8
20260902003058 82 79 0.0 0.0 0.00 0.31 0.31 85 1009.7
20260902001554 83 79 0.0 0.0 0.00 0.31 0.31 85 1009.7
20260902000036 84 79 0.0 0.0 0.00 0.31 0.31 83 1009.8
20260901234535 85 79 0.0 0.0 0.00 0.31 0.31 81 1009.9
20260901233017 86 79 0.0 0.0 0.00 0.31 0.31 81 1009.9
20260901231517 86 79 0.0 0.0 0.00 0.31 0.31 79 1010.0
20260901230114 86 79 0.0 0.0 0.00 0.31 0.31 78 1010.1
20260901224601 87 79 0.0 0.0 0.00 0.32 0.31 77 1010.1
20260901223044 89 79 0.0 0.0 0.00 0.32 0.31 75 1010.1
20260901221543 90 79 0.0 1.0 0.00 0.32 0.31 73 1010.0
20260901220050 89 79 0.0 1.0 0.00 0.32 0.31 72 1009.9
20260901214522 89 79 0.0 1.0 0.00 0.32 0.31 70 1010.0
20260901213003 89 79 0.0 3.0 0.00 0.32 0.31 71 1010.0
20260901211501 89 79 0.0 2.0 0.00 0.32 0.31 73 1010.1
20260901210104 88 78 0.0 2.0 0.00 0.32 0.31 73 1010.1
20260901204540 87 78 0.0 2.0 0.00 0.32 0.31 77 1010.2
20260901203052 86 79 0.0 2.0 0.00 0.32 0.31 79 1010.1
20260901201516 85 78 1.0 4.0 0.00 0.32 0.31 81 1010.3
20260901200017 84 78 1.0 3.0 0.00 0.32 0.31 83 1010.3
20260901194554 83 77 2.0 5.0 0.00 0.35 0.31 83 1010.3
20260901193058 82 99 0.0 3.0 0.00 0.35 0.31 84 1010.5
20260901191542 82 29 0.0 7.0 0.00 0.35 0.31 84 1010.6
20260901190040 82 57 1.0 7.0 0.00 0.35 0.31 83 1010.7
20260901184540 81 38 0.0 5.0 0.00 0.37 0.31 83 1010.7
20260901183046 82 11 2.0 7.0 0.00 0.37 0.31 83 1010.8
20260901181537 82 50 0.0 5.0 0.31 0.37 0.31 84 1010.8
20260901180035 82 43 0.0 5.0 0.31 0.37 0.31 84 1010.7
20260901174535 81 354 0.0 4.0 0.31 0.37 0.31 85 1010.7
20260901173049 81 354 0.0 5.0 0.31 0.37 0.31 84 1010.8
20260901171515 81 339 0.0 4.0 0.00 0.06 0.00 84 1010.9
20260901170013 80 320 0.0 5.0 0.00 0.06 0.00 85 1011.0
20260901164600 80 288 0.0 3.0 0.00 0.06 0.00 86 1011.0
20260901163052 79 280 1.0 3.0 0.00 0.06 0.00 87 1011.2
20260901161536 78 280 0.0 2.0 0.00 0.06 0.00 88 1011.3
20260901160032 77 280 0.0 4.0 0.00 0.06 0.00 88 1011.4
20260901154511 77 280 1.0 4.0 0.00 0.16 0.00 88 1011.5
20260901153009 77 280 2.0 5.0 0.00 0.16 0.00 88 1011.5
20260901151551 76 280 1.0 4.0 0.00 0.16 0.00 88 1011.6
20260901150053 77 280 1.0 4.0 0.00 0.16 0.00 88 1011.4
20260901144532 77 257 1.0 5.0 0.00 0.16 0.00 88 1011.5
20260901143037 76 247 0.0 1.0 0.00 0.16 0.00 89 1011.4
20260901141521 76 236 0.0 0.0 0.00 0.16 0.00 89 1011.1
20260901140020 76 236 0.0 0.0 0.00 0.16 0.00 89 1011.1
20260901134522 75 217 0.0 0.0 0.00 0.16 0.00 91 1011.2
20260901133013 74 174 0.0 0.0 0.00 0.16 0.00 92 1011.2
20260901131514 74 174 0.0 0.0 0.00 0.16 0.00 92 1011.3
20260901130027 73 173 0.0 0.0 0.00 0.16 0.00 92 1011.4
20260901124508 73 172 0.0 0.0 0.00 0.16 0.00 93 1011.5
20260901123009 72 173 0.0 0.0 0.00 0.16 0.00 93 1011.5
20260901121545 71 173 0.0 0.0 0.00 0.16 0.00 93 1011.2
20260901120053 71 173 0.0 0.0 0.00 0.16 0.00 93 1011.2